Location: 3 Angels Observatory
(30.5437°N, 88.5068°W)
Time: 11:21:41
(UTC-05:00)

Daily predictions for brighter satellites

Satellite Brightness Start Highest point End
(mag) Time Altitude Azimuth Time Altitude Azimuth Time Altitude Azimuth
Cosmos 1821 Rocket 4.3 19:22:17 10° SSE 19:28:22 48° E 19:34:26 10° NNE
NOSS 3-4 (A) 3.9 19:21:31 10° NNW 19:28:42 76° ENE 19:36:18 10° SE
NOSS 3-4 (C) 3.9 19:21:37 10° NNW 19:28:48 75° ENE 19:36:24 10° SE
Cosmos 1707 3.3 19:26:37 10° NNE 19:30:13 35° E 19:33:47 10° SSE
Meteor 2-5 Rocket 4.1 19:25:53 10° N 19:31:23 47° E 19:36:59 10° SSE
Cosmos 858 Rocket 4.5 19:29:47 10° S 19:35:01 78° ESE 19:40:18 10° NNE
ALOS 2.8 19:30:48 10° SE 19:35:06 38° ENE 19:39:24 10° N
HJ-1C 4.5 19:32:49 10° SE 19:35:40 26° ENE 19:38:32 10° NNE
Geosat 4.4 19:31:25 10° NE 19:36:10 42° ESE 19:40:52 10° S
CZ-3B DEB 3.8 19:20:56 10° SW 19:36:11 77° NW 19:43:00 10° NE
Cosmos 1727 Rocket 4.5 19:31:25 10° NNW 19:37:32 67° W 19:43:38 10° S
Cosmos 1812 Rocket 3.9 19:33:35 10° SSE 19:37:45 42° E 19:41:56 10° NNE
Resurs 01 Rocket 2.7 19:35:15 10° SE 19:38:49 25° ENE 19:42:24 10° NNE
Cosmos 1766 4.1 19:35:37 10° SSE 19:38:58 28° E 19:42:19 10° NNE
Meteor 2-15 Rocket 4.4 19:36:24 10° N 19:42:34 82° E 19:48:41 10° S
Cosmos 1937 Rocket 3.5 19:38:06 10° S 19:43:18 76° ESE 19:48:34 10° NNE
Delta 168 4.3 19:41:37 10° SSW 19:44:13 18° S 19:46:26 10° SE
BREEZE-M DEB (TANK) 2.8 19:42:20 10° SSW 19:44:32 30° SE 19:48:58 10° ENE
RESURS DK-1 4.3 19:42:50 10° NNE 19:44:41 13° ENE 19:46:08 11° E
COSMOS 2406 3.4 19:40:51 10° N 19:46:28 54° ENE 19:52:01 10° SE
Cosmos 1680 Rocket 4.0 19:42:22 10° NNW 19:47:34 64° WSW 19:52:42 10° S
Lacrosse 5 1.8 19:43:37 10° SSW 19:48:41 83° SE 19:53:46 10° NE
SL-27 R/B 4.3 19:47:25 10° NNE 19:49:33 15° ENE 19:50:28 14° E
Cosmos 2298 Rocket 4.4 19:45:37 10° SSW 19:50:53 72° WNW 19:56:12 10° NNE
Cosmos 1844 4.0 19:49:12 10° SSW 19:54:55 76° WNW 20:00:44 10° NNE
SeaSat 1 2.4 19:50:53 10° SE 19:55:45 66° ENE 20:00:39 10° NNW
Delta 2 Rocket 4.3 19:52:25 10° WNW 19:56:58 43° N 20:00:11 15° ENE
Cosmos 1000 Rocket 4.4 19:51:11 10° N 19:57:23 76° E 20:03:35 10° S
Delta 128 4.2 19:53:23 10° SW 19:57:33 38° SSE 20:00:28 18° ESE
FREGAT/IRIS 3.7 20:01:18 10° S 20:04:16 47° W 20:07:15 10° NNW
Cosmos 2123 Rocket 4.3 19:59:08 10° N 20:05:10 46° E 20:11:08 10° SSE
IUS-7 SRM-1 3.7 20:06:47 10° SSW 20:08:24 18° SSE 20:08:31 18° SSE
Stardust Del rocket 4.4 20:06:25 10° SW 20:08:38 17° S 20:09:35 14° SSE
Cosmos 2344 3.9 20:01:06 10° SW 20:08:49 72° WNW 20:16:57 10° NNE
CZ-2D R/B 3.8 20:06:58 17° SE 20:09:32 37° ENE 20:13:07 10° N
Cosmos 1867 4.1 20:09:02 10° S 20:13:50 33° ESE 20:18:41 10° NE
Helios 1A 3.9 20:14:06 26° E 20:14:55 28° ENE 20:18:28 10° NNE
Cosmos 1805 3.6 20:12:01 10° SSE 20:15:40 41° E 20:19:21 10° NNE
Yuri Rocket 3.0 20:13:18 10° W 20:17:28 65° S 20:19:20 31° ESE
Meteor 1-22 Rocket 4.5 20:12:12 10° SSW 20:17:52 77° W 20:23:50 10° N
Cosmos 1437 Rocket 4.4 20:15:01 10° SSW 20:18:41 37° W 20:22:26 10° N
Helios 1B rocket 2.6 20:14:48 10° NNE 20:18:47 47° E 20:22:44 10° S
SJ-6B 4.1 20:15:38 10° S 20:19:10 39° W 20:22:41 10° NNW
Lacrosse 4 Rocket 4.2 20:20:47 10° WSW 20:23:42 19° WNW 20:26:38 10° NNW
Resurs 1-3 3.5 20:22:03 10° SSE 20:26:24 79° ENE 20:30:47 10° N
Cosmos 372 Rocket 4.4 20:26:14 10° SSE 20:30:52 36° E 20:35:31 10° NE
SWIFT 4.1 20:31:06 10° SW 20:34:10 19° S 20:34:55 18° S
Spot 2 Rocket 3.6 20:31:16 10° S 20:36:20 76° WSW 20:41:27 10° NNW
Cosmos 1758 3.1 20:35:29 10° S 20:39:25 75° E 20:43:24 10° N
Delta 2 Rocket 4.3 20:34:02 10° W 20:40:35 54° S 20:42:52 35° SE
GPS 2-05 Rocket1 3.0 20:38:30 10° WSW 20:41:43 62° SSW 20:41:43 62° SSW
In-Cosmos 22 3.9 20:37:24 10° N 20:42:43 78° E 20:46:00 23° SSE
SAR-Lupe-4 3.6 20:45:19 67° NNE 20:45:19 67° NNE 20:48:31 10° N
Cosmos 1459 Rocket 4.3 20:45:22 40° E 20:45:44 41° E 20:51:30 10° NNE
USA 215 3.6 20:40:09 10° NE 20:46:36 64° NW 20:53:01 10° SW
Cosmos 2278 Rocket 3.2 20:42:17 10° SW 20:47:42 46° WNW 20:53:09 10° N
Cosmos 2173 Rocket 4.3 20:48:08 41° E 20:48:08 41° E 20:53:34 10° NNE
Cosmos 1953 2.2 20:46:48 18° S 20:49:43 87° W 20:53:48 10° N
Tiangong 1 3.6 20:47:53 10° NNW 20:48:48 15° N 20:48:48 15° N
CZ-3 Stage 3 3.6 20:04:22 10° W 20:50:52 89° N 20:54:41 37° E
Cosmos 1833 Rocket 4.1 20:49:36 10° N 20:52:39 22° NE 20:52:39 22° NE
Envisat 3.1 20:54:30 53° ENE 20:54:30 53° ENE 20:59:12 10° N
Okean 3 Rocket 3.7 20:54:09 10° N 20:58:32 73° W 20:59:29 52° SSW
Cosmos 2297 3.6 20:54:14 10° SSW 20:59:55 87° WNW 21:05:41 10° NNE
Cosmos 1125 Rocket 3.6 20:55:34 10° SSW 21:00:44 75° WNW 21:05:57 10° NNE
ATLAS 5 CENTAUR R/B 3.9 21:07:35 10° SSW 21:08:20 15° SSW 21:08:20 15° SSW
GP-B 3.6 21:14:49 57° NW 21:14:49 57° NW 21:18:42 10° N
Resurs 01 Rocket 4.0 21:11:49 10° SSW 21:15:10 21° W 21:18:33 10° NW
Aurora 2 Rocket 4.4 21:16:36 10° WSW 21:19:49 26° SW 21:19:49 26° SW
RESURS DK-1 3.8 21:19:01 10° NW 21:22:06 35° W 21:22:06 35° W
Cosmos 2082 Rocket 3.2 21:18:05 10° N 21:21:38 35° NNE 21:21:38 35° NNE
Cosmos 2100 Rocket 4.1 21:28:37 46° SSW 21:30:35 74° W 21:36:57 10° N
